Back to catalog

STARLINK-33785

AliveCommunicationsVLEO
NORAD 63516·PAYLOAD·🇺🇸 United States

Launched Apr 7, 2025 from Vandenberg Space Force Base

Loading…

Next Passes (next 24 hours)

TLE

FreshSource: CelesTrak SupGP

Epoch: Sep 14, 2026, 14:16 UTC

1 63516C 25071Z   26257.59493056 -.00021424  00000+0 -68910-3 0  2577
2 63516  53.1608 341.2741 0001310  76.0875 102.3379 15.31704475    19

Track STARLINK-33785 in real time with AllMySat

Download on the App Store